Regional Weather Roundup
Issued by NWS

Home | Current Version | Previous Version | Graphics & Text | Print | Product List | Glossary On
Versions: 1 2 3 4 5 6 7 8 9 10 11 12 13 14 15 16 17 18 19 20 21 22 23 24 25 26 27 28 29 30 31 32 33 34 35 36 37 38 39 40 41 42 43 44 45 46 47 48 49 50
000
ASUS45 KTFX 312304
RWRMT
MONTANA REGIONAL WEATHER ROUNDUP
NATIONAL WEATHER SERVICE GREAT FALLS MT
500 PM MDT MON AUG 31 2015

NOTE: "FAIR" INDICATES FEW OR NO CLOUDS BELOW 12000 FEET WITH NO
SIGNIFICANT WEATHER AND/OR OBSTRUCTIONS TO VISIBILITY.

MTZ001>007-043-010000-
WEST OF THE DIVIDE

CITY           SKY/WX    TMP DP  RH WIND       PRES   REMARKS
KALISPELL        N/A     69  39  33 W8        29.93F
MISSOULA         N/A     72  40  31 CALM      29.96F
BUTTE            N/A     74  32  21 W13G22    30.00F
MULLAN PASS    PTSUNNY   51  41  68 SW6       30.07F
DEER LODGE       N/A     72  37  28 NW12      30.01F
EUREKA           N/A     64  43  45 SW5       29.96S
HAMILTON         N/A     73  39  29 N10       29.94F
LIBBY            N/A     66  41  39 CALM      29.95F
$$

MTZ008-052>055-010000-
SOUTHWEST MONTANA

CITY           SKY/WX    TMP DP  RH WIND       PRES   REMARKS
BOZEMAN          N/A     78  38  23 NE6       29.94F
DILLON           N/A     78  32  18 SW10      29.97F
W YELLOWSTONE  MOSUNNY   68  32  26 SW16G28   30.13F
$$

MTZ009-010-012-014-046-048-049-054-010000-
EAST SLOPES AND CENTRAL MONTANA

CITY           SKY/WX    TMP DP  RH WIND       PRES   REMARKS
CUT BANK         N/A     64  36  35 W18G25    29.88S
GREAT FALLS      N/A     76  35  22 SW22G29   29.88S
MALMSTROM AFB    N/A     75  35  23 W22G29    29.88F
HELENA           N/A     80  36  20 W18G25    29.91S
$$

MTZ011-013-016-021-045-047-050-051-010000-
NORTH CENTRAL MONTANA

CITY           SKY/WX    TMP DP  RH WIND       PRES   REMARKS
HAVRE            N/A     78  36  21 W18       29.80S
LEWISTOWN        N/A     76  33  21 NW6       29.90F
N BAR RANCH      N/A     73  34  23 S7        29.94F
CHINOOK          N/A     77  36  22 W10G22    29.79S
FORT BENTON      N/A     77  36  22 SW16G24   29.84S
$$

MTZ017>020-022>027-061-062-010000-
NORTHEAST MONTANA

CITY           SKY/WX    TMP DP  RH WIND       PRES   REMARKS
GLASGOW        MOSUNNY   75  37  25 SW10      29.84S
JORDAN           N/A     77  34  21 W12G21    29.85F
SIDNEY         MOSUNNY   79  34  19 SW15G22   29.84S
WOLF POINT     PTSUNNY   77  39  25 W14       29.84F
PLENTYWOOD       N/A     73  37  27 SW13G25   29.83S
$$

MTZ028>42-056>058-010000-
SOUTHCENTRAL AND SOUTHEAST MONTANA

CITY           SKY/WX    TMP DP  RH WIND       PRES   REMARKS
BAKER          SUNNY     79  42  26 W10       29.92S
BILLINGS       PTSUNNY   82  33  17 VRB6      29.89F
LIVINGSTON     MOSUNNY   81  30  15 SW15      29.92F
MILES CITY     SUNNY     82  43  25 SW5G17    29.86F
FORSYTH          N/A     82  34  17 W8        29.85F
$$

REGIONAL REPORTS...DAKOTAS

CITY           SKY/WX    TMP DP  RH WIND       PRES   REMARKS
WILLISTON      MOSUNNY   80  34  19 W20       29.84S
MINOT          SUNNY     78  38  23 W17       29.82S
DICKINSON      SUNNY     78  38  23 W14G21    29.88F
BISMARCK       MOSUNNY   83  43  24 W9        29.87S
GRAND FORKS    CLOUDY    78  58  49 W13       29.79R
FARGO          CLOUDY    80  66  62 SE3       29.82R
BUFFALO SD       N/A     79  44  28 SE6       29.87S
RAPID CITY     MOSUNNY   73  57  57 SE10      29.96F
$$

REGIONAL REPORTS...WYOMING/IDAHO/WASHINGTON

CITY           SKY/WX    TMP DP  RH WIND       PRES   REMARKS
GILLETTE       SUNNY     86  33  15 W12G17    29.91S
SHERIDAN       SUNNY     84  42  22 N3        29.90F
BUFFALO WY     SUNNY     84  41  21 N13       29.95R
CODY           MOSUNNY   82  28  14 W8        29.95S
YELLOWSTONE LA   N/A     61  28  28 VRB7      30.23S
IDAHO FALLS    SUNNY     79  33  19 SW16G24   30.03F
SALMON           N/A     79  39  24 N9        29.89F
BOISE            N/A     81  39  22 NW5       29.94F
SPOKANE        PTSUNNY   69  44  40 SW15      29.93F
$$

REGIONAL REPORTS...ALBERTA

CITY           SKY/WX    TMP DP  RH WIND       PRES   REMARKS
$$

REGIONAL REPORTS...SASKATCHEWAN

CITY           SKY/WX    TMP DP  RH WIND       PRES   REMARKS
$$


USA.gov is the U.S. government's official web portal to all federal, state and local government web resources and services.